Theta_e
341 344 342 340 342 343 343 343 342 341 340 340 341 340 341 342 343 345 346 345 344 343 343 345 346 345 344 344 342 341 342 341 339 339 340 341 339 339 341 342 341 341 340 339 337 331 324 320 319 319 319 318 318 318 318 318 319 320 321 322 326 329 332 335 335 336 336 336 338 339 339 340 340 341 340 338 334 331 329 328 326 326 326 325 325
341 343 343 341 341 341 342 342 342 341 341 340 341 341 341 342 343 345 345 346 345 344 343 344 346 345 345 344 343 341 341 342 341 340 341 342 341 340 342 342 342 342 342 341 339 336 329 323 320 319 319 319 319 319 319 320 321 321 322 322 324 328 331 333 333 334 335 335 336 338 338 339 340 340 341 340 339 336 334 333 333 332 331 330 329
341 341 341 341 340 340 341 342 342 341 341 341 341 342 342 343 343 343 344 346 347 345 342 343 345 345 345 345 343 342 342 342 342 342 342 342 341 342 342 342 342 343 344 342 339 338 334 328 324 321 320 321 321 321 322 323 324 324 324 324 324 328 331 333 332 333 334 335 336 337 337 338 339 339 340 339 339 339 338 337 336 336 335 334 333
341 341 339 340 340 339 341 341 342 341 341 342 342 342 343 343 343 343 345 347 348 346 343 344 345 346 345 345 344 344 343 343 343 342 342 342 342 343 343 342 343 344 344 343 341 339 337 334 329 326 324 323 323 324 324 324 325 326 326 327 328 330 332 333 332 332 332 334 334 335 336 338 338 338 339 339 340 340 340 340 339 337 335 334 332
339 340 339 338 338 338 338 339 340 340 341 342 342 342 343 344 344 344 346 348 348 346 344 344 346 346 345 345 345 345 344 343 342 342 342 343 342 343 343 343 343 343 344 344 343 340 338 336 334 331 329 327 326 326 326 327 326 327 328 329 331 332 334 334 335 334 333 333 333 334 335 337 338 338 338 339 339 340 340 340 341 340 337 335 334
337 337 338 337 337 336 338 338 339 339 341 342 342 343 342 343 344 344 346 347 347 347 346 346 346 346 345 345 345 344 344 343 342 341 341 342 343 342 343 343 344 343 343 345 345 343 339 338 336 335 336 336 333 331 331 332 332 333 334 333 335 337 338 338 337 336 337 336 335 335 335 336 337 338 338 338 339 339 340 340 340 340 340 339 339
338 337 337 337 337 338 339 341 341 340 340 342 343 344 343 342 343 343 344 346 346 346 347 347 346 345 345 345 345 344 344 344 342 342 342 343 343 343 343 343 344 343 344 344 345 345 343 340 337 336 338 340 339 337 336 336 337 339 339 339 339 341 341 341 340 339 340 340 339 338 337 336 336 337 338 338 339 339 340 340 340 341 341 341 342
340 339 340 339 338 339 339 341 343 343 341 342 344 344 344 343 342 343 343 345 346 346 347 348 346 345 345 344 345 345 344 344 344 344 344 344 344 344 344 343 343 343 344 344 343 344 345 343 339 337 336 339 341 341 340 340 340 340 340 340 341 342 342 342 342 341 340 341 340 341 340 340 340 339 338 338 339 339 340 340 340 340 340 341 341
340 341 341 340 339 340 340 342 345 346 344 342 343 344 345 344 343 343 343 344 346 346 346 347 346 345 344 344 345 345 345 345 346 346 345 345 345 345 345 345 344 344 344 344 343 342 343 344 342 339 337 336 338 340 341 341 341 340 340 340 340 341 342 342 342 342 341 340 340 340 340 340 341 342 342 341 341 340 340 340 340 340 340 341 340
340 340 340 340 341 342 342 344 346 348 346 343 343 345 346 346 344 343 343 345 346 347 347 347 347 346 345 345 345 345 346 346 347 348 347 346 345 345 346 345 345 344 344 345 344 343 342 342 340 340 340 339 338 339 339 341 342 341 341 339 339 340 340 341 341 342 342 341 341 340 339 338 337 338 339 341 341 342 341 340 340 341 341 341 341
341 340 341 342 344 345 345 345 346 347 346 344 344 344 346 346 344 343 344 346 346 347 347 347 347 348 347 346 345 345 346 347 347 348 348 347 346 346 346 346 346 346 345 345 345 345 343 341 339 339 340 341 340 338 337 338 340 341 341 340 340 339 339 340 340 342 342 342 342 341 340 340 338 335 334 333 335 337 338 339 340 341 342 341 341
345 345 345 346 346 346 346 346 346 348 347 346 345 344 345 345 345 343 345 346 346 346 348 348 347 348 347 347 347 346 346 347 348 348 347 347 348 347 347 347 346 346 346 346 346 346 345 343 341 339 338 339 340 338 336 336 336 338 339 340 340 339 339 340 340 341 341 342 342 342 341 341 341 340 338 336 334 333 333 334 335 337 339 339 341
348 348 348 348 348 347 347 346 346 347 347 346 346 345 345 345 345 345 345 346 346 347 347 348 348 347 347 346 346 345 346 347 347 347 346 346 348 348 347 347 347 346 346 346 346 346 346 345 343 342 341 339 338 339 339 337 336 336 336 336 337 338 339 341 342 342 342 342 342 343 342 341 342 342 342 342 341 340 339 338 337 335 334 333 334
349 349 348 348 348 348 347 347 346 346 347 347 346 345 345 346 346 346 346 346 347 347 348 348 348 348 346 347 347 347 347 347 346 346 346 346 347 347 347 348 347 346 347 347 346 346 346 346 346 345 344 343 341 339 339 338 338 338 336 334 334 334 337 340 343 343 343 343 342 342 342 341 341 341 340 340 341 342 342 342 341 340 339 335 331
350 350 349 348 348 348 347 347 346 347 346 346 346 346 345 346 347 347 347 347 348 348 348 348 348 348 347 347 348 348 349 347 346 345 346 347 347 346 347 347 347 347 348 348 347 347 347 347 347 346 346 345 344 343 342 341 339 339 338 335 334 333 334 338 341 343 343 342 342 342 342 341 341 341 340 339 339 339 339 338 337 337 339 340 337
350 350 350 349 349 348 347 347 347 347 347 346 346 346 346 346 347 348 347 348 348 348 348 348 348 349 348 347 348 349 349 348 346 346 346 348 348 346 346 346 347 348 349 349 348 347 347 347 347 346 346 346 346 346 346 345 343 340 339 337 336 335 334 336 339 341 342 341 342 341 341 341 341 340 340 339 339 339 338 337 336 336 336 337 337
350 350 350 350 349 349 349 349 348 348 348 348 347 347 346 346 346 347 348 348 348 348 349 349 349 349 348 348 348 349 349 348 348 347 347 347 347 346 345 346 347 348 348 349 348 347 347 347 347 347 346 346 346 346 346 346 346 345 343 341 340 339 338 336 337 338 340 341 341 342 341 341 341 340 340 339 339 340 339 339 339 338 338 338 337
350 350 350 350 350 350 350 349 349 349 348 349 349 348 347 347 346 347 348 349 349 349 348 348 349 349 349 349 348 349 349 348 348 348 348 347 346 346 346 346 346 347 349 349 348 348 347 347 347 347 347 346 346 347 347 346 346 346 346 345 344 343 342 339 338 336 337 338 339 340 340 340 340 340 339 339 338 339 340 340 340 340 339 339 339
350 350 350 350 350 350 350 350 349 349 348 348 349 349 348 347 347 347 347 347 348 349 348 348 349 349 350 349 349 351 350 349 349 348 348 348 347 347 346 346 346 346 347 348 347 347 347 346 346 347 347 347 347 347 347 346 346 346 346 346 346 346 345 344 342 340 338 337 337 337 338 338 338 339 340 340 339 340 340 341 341 340 340 338 338
349 349 349 349 349 349 350 350 350 349 349 349 349 349 348 348 348 348 347 346 346 347 348 348 350 351 350 350 351 351 351 351 351 350 349 348 347 347 347 346 346 345 346 346 346 346 345 345 345 346 347 348 347 347 347 347 347 347 347 347 346 346 346 346 346 345 343 341 340 339 338 338 338 339 340 340 340 340 340 341 341 341 340 339 338
349 349 349 349 349 349 349 349 349 349 349 350 350 349 349 348 348 347 347 347 347 348 348 349 350 351 351 351 352 352 351 351 351 351 350 348 347 347 347 347 347 347 346 345 346 345 345 343 344 344 346 347 348 348 348 348 347 347 346 346 346 346 345 345 346 346 346 346 345 344 343 342 341 340 339 339 339 339 339 341 342 342 342 341 340
349 349 349 349 350 349 349 349 349 349 349 349 349 349 350 349 348 348 348 348 348 348 349 350 350 351 351 351 352 352 352 351 349 350 349 349 348 348 347 347 348 348 348 347 347 346 346 345 344 345 345 345 346 347 348 349 348 348 347 346 345 345 345 345 344 344 344 345 345 346 346 346 344 343 342 340 340 340 340 341 342 343 343 343 343
348 349 349 349 349 350 350 350 349 349 349 349 348 349 349 349 348 348 348 348 349 349 349 350 350 350 351 351 351 351 351 350 350 349 349 349 348 349 349 348 348 349 349 349 349 349 348 346 345 344 345 345 345 346 347 348 348 348 347 346 346 346 346 345 345 344 343 344 344 345 345 345 344 343 343 341 341 341 341 342 344 344 343 344 343
346 346 347 347 347 347 349 349 349 350 349 348 349 348 348 349 349 350 349 349 349 349 349 349 349 349 350 351 351 351 351 350 350 350 349 349 349 348 348 348 348 349 350 350 350 350 349 347 345 345 346 346 345 345 346 346 347 347 347 348 348 347 347 347 346 345 345 345 345 346 345 344 343 342 341 341 340 340 341 340 341 343 342 342 342
339 341 343 344 345 345 346 346 347 348 349 349 349 349 349 349 350 350 350 349 349 349 349 348 349 350 350 350 351 352 351 351 351 350 350 350 349 348 349 348 349 349 350 350 350 350 350 349 348 347 348 348 346 345 345 346 347 347 347 349 349 350 349 348 346 345 346 347 347 348 347 346 344 342 341 340 340 339 340 339 339 340 341 341 342
334 338 341 343 344 345 345 345 345 345 347 349 350 350 350 350 350 350 350 349 349 349 348 348 349 349 349 350 351 352 351 351 351 351 350 350 349 348 348 349 349 350 350 350 350 350 350 349 349 349 349 349 347 345 345 345 346 346 347 349 350 351 351 350 348 347 347 347 347 348 348 346 344 343 342 341 341 341 340 339 339 339 340 341 341
338 340 342 344 344 344 345 345 346 346 347 348 349 350 350 350 351 350 350 349 349 349 348 349 348 349 349 349 350 351 351 351 351 351 351 350 349 348 347 348 349 350 350 349 350 350 350 349 350 349 350 350 348 347 346 346 346 346 347 348 350 351 351 351 351 350 348 347 346 347 347 346 344 343 343 343 342 342 341 340 340 339 340 340 340
340 341 342 343 343 343 344 344 346 348 347 347 348 349 350 349 350 350 350 350 350 350 349 349 349 348 348 348 349 351 351 351 351 351 351 351 351 350 348 348 349 350 350 349 349 350 349 350 350 350 350 350 350 349 349 349 348 347 347 348 350 350 351 352 352 351 350 348 346 346 345 344 343 343 342 342 341 341 340 340 341 341 341 342 342
338 340 342 343 343 344 344 344 345 346 346 345 344 345 347 347 347 347 348 348 349 349 349 349 349 349 349 348 349 349 350 351 350 350 351 351 351 351 350 349 349 349 349 349 348 348 348 349 349 350 350 350 350 350 350 350 349 348 349 349 350 351 351 352 353 352 352 349 348 347 346 345 343 342 342 342 341 340 340 340 340 341 341 342 343
338 341 342 343 343 343 343 344 344 344 344 342 340 340 342 344 346 346 346 347 347 348 348 349 348 349 349 349 348 349 349 350 350 350 350 351 351 351 350 350 349 348 348 349 349 348 347 348 349 350 350 350 350 350 350 350 350 349 350 350 350 351 352 352 353 353 352 351 350 349 348 347 346 345 343 343 342 341 340 340 339 340 340 340 341
339 340 341 341 342 342 342 342 341 341 342 341 338 338 341 343 344 345 346 346 346 346 347 347 349 349 349 349 350 350 349 350 350 350 350 351 351 351 350 350 349 348 347 348 349 348 348 349 349 350 350 351 351 350 349 350 350 350 350 351 350 350 351 352 353 354 353 352 352 352 350 349 348 346 345 344 344 344 344 343 342 342 341 341 341
337 338 338 339 339 338 337 337 339 341 342 342 341 341 343 342 341 342 344 344 345 345 346 346 347 348 349 348 349 349 349 349 349 349 349 350 350 351 350 350 349 348 347 347 348 348 348 348 349 349 350 350 351 350 348 348 349 350 351 351 351 351 351 353 352 353 353 352 352 350 350 350 349 349 347 347 347 347 348 347 347 346 345 344 343
338 338 336 336 336 335 335 337 341 343 343 344 344 344 344 341 338 340 342 343 344 345 345 345 345 346 348 348 348 348 348 348 347 347 348 348 349 350 350 349 349 349 348 347 347 347 347 348 348 350 350 350 350 350 349 348 349 349 350 351 351 351 351 351 352 352 351 351 350 350 350 351 351 350 349 349 349 349 349 349 349 348 348 347 346
337 336 335 335 334 334 334 336 339 341 342 343 344 344 343 340 337 338 341 343 344 344 344 344 344 344 345 346 347 349 349 348 348 347 347 348 348 349 350 349 350 350 349 347 347 347 347 348 348 349 350 349 350 351 350 349 348 349 349 350 350 351 351 351 351 351 351 352 351 351 350 351 351 350 350 349 349 348 348 349 349 349 349 349 349
335 335 334 334 334 334 334 334 336 337 338 339 340 340 339 337 336 337 339 341 342 342 342 342 342 342 342 343 345 346 347 348 347 347 346 347 347 347 349 350 350 350 349 348 347 347 347 347 348 348 349 348 349 350 350 350 349 349 348 349 350 350 351 351 351 352 352 353 353 352 351 349 349 350 350 350 350 350 350 350 350 350 350 349 349
334 334 334 334 334 334 335 335 335 335 336 337 337 337 336 336 336 336 336 337 339 340 340 340 341 341 341 341 342 344 346 347 347 347 347 347 347 346 347 349 350 350 349 348 347 347 346 347 347 347 348 348 348 348 350 350 350 349 349 349 350 351 351 351 351 351 351 352 353 353 352 349 348 349 351 352 353 353 353 353 352 352 350 350 349
333 334 334 334 334 335 335 335 335 335 335 335 336 337 336 336 336 335 335 335 336 337 339 340 341 341 341 341 341 343 345 346 347 347 347 347 347 346 346 348 349 350 349 349 348 347 346 346 346 346 346 347 347 348 350 351 350 350 349 350 351 352 352 352 351 351 351 352 353 352 351 348 347 349 351 352 352 353 353 353 353 353 351 351 350
331 332 333 334 335 335 335 335 335 335 335 336 336 336 336 336 335 335 334 334 335 336 339 339 340 340 342 343 343 345 345 346 346 346 346 347 347 347 347 347 348 349 349 349 348 348 347 347 347 345 345 346 347 347 348 350 351 350 350 350 351 351 352 352 351 351 351 351 351 350 349 348 348 349 351 351 351 351 351 351 351 352 353 352 351
330 331 332 333 333 335 335 335 335 334 335 335 336 336 336 336 335 334 334 335 335 337 339 340 340 339 339 340 341 343 344 345 346 346 346 347 347 347 347 347 347 346 347 348 348 348 347 347 347 346 345 347 348 346 347 349 351 351 351 351 350 351 351 351 351 351 351 351 350 349 349 349 349 350 350 351 350 350 350 350 351 352 352 352 351
331 331 331 332 333 334 334 335 335 335 335 335 336 336 336 336 336 336 337 337 336 337 338 339 339 339 339 338 337 338 340 342 345 346 347 347 348 347 346 347 347 346 347 348 348 348 348 347 347 346 346 348 349 347 347 350 351 351 351 351 350 350 350 350 350 350 350 350 350 350 349 350 350 351 351 351 351 351 350 350 351 351 352 351 352
331 332 332 332 333 333 334 335 335 335 335 335 335 336 336 336 337 337 338 337 337 337 337 337 338 339 338 338 337 336 338 340 343 345 346 347 347 348 347 347 348 347 347 347 347 347 348 347 347 346 345 347 349 348 347 349 350 350 350 350 351 351 350 350 350 349 349 349 349 348 348 349 350 351 352 351 351 351 351 351 351 351 351 351 351
331 333 334 333 334 334 334 334 334 335 335 335 335 335 336 337 337 337 338 337 337 337 338 338 337 337 337 337 337 337 337 338 341 343 344 345 346 346 346 347 347 347 347 347 347 347 347 347 348 347 347 347 347 348 348 348 349 349 350 350 351 351 351 351 350 348 348 349 349 348 347 346 348 349 350 349 349 350 350 350 351 351 351 351 351
332 333 334 334 334 334 334 334 334 334 334 334 335 335 335 337 337 337 337 337 336 337 337 337 337 337 337 337 336 335 335 335 337 339 342 344 344 345 346 346 347 347 348 347 347 346 345 347 348 349 349 349 348 347 348 348 348 348 349 350 350 351 351 351 350 348 347 348 348 347 346 346 346 347 347 347 346 348 349 349 350 350 349 350 349
331 331 332 333 334 334 334 334 334 334 334 334 334 335 335 336 336 337 337 336 337 337 337 337 337 337 337 337 336 335 334 334 335 337 340 343 344 345 345 346 346 347 347 347 348 347 346 346 347 348 349 350 351 350 348 349 349 349 350 350 350 350 351 351 349 348 347 347 347 347 346 346 346 346 346 346 345 346 347 347 347 347 348 349 349
329 330 330 331 332 333 334 334 334 334 334 334 334 334 334 335 336 336 337 336 337 337 337 337 337 336 337 337 337 336 335 334 336 338 340 342 343 344 345 345 346 347 347 348 348 348 347 346 346 347 348 349 351 351 350 349 349 350 350 350 350 350 350 351 349 347 347 348 348 347 347 346 347 347 346 347 346 346 345 345 344 346 347 348 348
327 329 330 330 331 331 332 332 333 334 333 333 334 334 334 334 335 336 337 337 337 337 336 336 336 337 338 338 338 337 335 334 335 337 338 340 342 344 345 345 345 345 347 348 348 347 348 347 346 346 347 348 349 351 351 350 350 350 350 350 350 350 350 350 348 348 348 349 349 349 348 347 348 347 347 347 346 346 346 345 345 346 347 347 348
326 328 328 328 328 329 329 330 332 333 333 333 333 333 334 334 335 336 337 336 337 336 336 336 336 337 337 337 337 337 336 335 334 335 336 338 341 343 345 345 345 345 346 347 348 347 347 347 347 346 346 347 347 348 350 350 350 351 351 349 349 349 350 350 350 349 349 349 350 349 349 348 348 347 347 346 345 345 345 346 346 346 347 347 347
326 326 326 326 327 327 328 329 331 333 334 333 333 333 334 334 335 335 334 334 333 334 334 335 335 335 336 336 336 336 336 335 335 336 337 339 341 343 344 345 345 345 345 346 347 347 347 347 346 345 345 346 346 346 347 349 351 351 350 348 347 347 349 350 349 349 349 349 349 349 349 348 348 348 348 346 345 344 345 346 347 347 347 347 347
327 328 328 328 328 328 328 328 330 332 333 333 333 333 333 334 334 335 334 333 332 332 332 333 334 334 335 335 336 336 336 335 335 336 337 339 341 343 344 346 347 346 345 345 346 347 347 347 346 346 346 345 344 345 346 349 350 351 350 347 345 346 348 348 346 346 347 348 348 349 349 349 349 349 349 348 347 345 346 347 348 348 348 347 347
328 329 329 330 330 330 329 327 328 331 333 333 333 333 333 333 334 334 335 334 334 334 334 335 335 335 335 335 336 336 336 336 336 336 338 339 341 343 344 345 347 346 345 344 346 347 347 348 347 347 346 346 343 344 347 348 348 350 349 347 346 346 348 347 345 343 346 347 347 349 350 350 349 349 350 349 348 347 345 346 349 349 348 348 347
329 330 330 331 331 331 329 327 328 330 333 333 333 333 333 333 334 334 335 335 335 335 336 336 335 335 335 334 335 335 335 335 336 337 338 338 340 343 343 344 344 344 344 345 345 346 348 349 349 348 346 346 344 344 347 347 347 349 348 347 346 346 347 347 346 346 347 346 346 348 351 350 349 350 350 350 349 348 346 346 347 348 348 347 347
Wind_Speed
5 4 6 7 5 8 10 7 5 5 6 7 7 6 5 4 4 5 6 7 6 6 6 5 3 3 5 7 9 10 12 14 16 16 15 16 18 19 18 17 18 19 18 16 16 15 15 15 15 15 15 15 15 16 16 15 15 15 13 13 13 12 14 15 16 16 15 15 14 14 14 14 14 14 16 17 17 18 18 18 18 18 18 18 18
6 8 9 8 5 6 9 10 9 6 5 6 7 6 5 5 5 6 7 8 8 8 7 6 5 4 4 7 8 10 12 13 15 16 16 16 18 19 18 17 18 19 19 17 17 17 17 16 16 16 16 15 15 16 16 16 15 15 14 14 14 13 14 16 17 17 17 16 15 15 15 15 15 15 15 16 16 17 18 18 18 18 18 18 18
8 11 11 10 9 7 6 8 7 5 5 5 5 5 5 4 5 7 7 8 9 9 8 6 6 5 4 6 8 10 11 12 14 15 16 17 18 18 18 18 19 19 19 19 19 19 18 18 18 17 17 16 16 17 17 16 15 14 14 14 14 14 14 15 17 18 18 18 17 17 16 16 16 16 16 16 16 16 16 16 17 17 17 18 18
12 13 12 12 13 10 7 5 5 4 4 4 4 5 5 5 6 7 7 7 9 9 7 6 7 6 4 6 8 10 12 12 13 13 14 16 18 18 18 20 20 20 19 20 20 20 20 20 20 19 18 18 18 17 17 16 16 15 15 15 15 15 15 16 17 18 19 19 19 18 18 18 17 17 17 17 16 16 16 16 16 16 16 17 17
13 14 13 11 12 12 10 10 9 7 5 5 5 5 6 6 6 6 7 8 9 8 7 6 7 7 4 5 8 10 12 13 12 12 14 15 17 18 20 21 21 21 20 21 21 21 21 21 21 21 20 20 20 20 19 18 18 17 17 17 17 17 17 17 18 18 19 19 19 19 19 19 19 18 18 17 17 17 16 16 16 16 16 16 16
15 15 14 13 13 13 14 13 13 13 11 9 8 8 8 8 7 7 8 8 9 9 9 8 7 6 5 5 7 8 10 11 11 12 13 15 17 18 20 21 21 21 22 22 22 22 22 22 22 22 21 21 22 22 22 21 20 19 19 19 19 19 19 19 19 19 19 19 20 20 20 20 20 19 19 18 18 18 17 17 17 17 17 17 17
18 18 17 16 16 16 16 16 15 15 15 13 11 11 11 10 9 9 9 9 10 11 10 10 8 7 6 5 5 6 9 10 11 12 13 15 16 18 19 21 22 22 22 23 23 23 23 24 24 23 22 22 23 23 24 23 22 22 21 21 21 20 20 20 20 20 20 20 20 20 20 21 20 20 20 19 19 19 18 18 18 18 18 18 18
21 20 20 20 20 20 19 19 18 17 17 16 14 14 14 12 11 10 10 9 10 12 13 10 8 7 8 6 5 6 8 9 11 12 12 14 16 17 18 20 22 22 23 23 24 25 25 25 25 25 25 24 24 24 25 25 25 24 23 23 23 22 22 21 21 21 21 21 21 21 21 21 21 21 21 21 20 20 20 20 19 19 19 19 19
23 23 23 24 23 23 22 20 19 18 19 19 18 17 15 14 13 12 12 10 10 14 14 11 9 8 8 7 6 7 8 9 10 11 12 14 14 15 17 19 21 22 23 24 25 26 27 27 27 27 27 26 26 26 26 26 26 26 25 25 25 24 24 23 23 22 22 22 23 23 23 23 23 22 22 22 22 22 22 21 21 21 21 21 21
25 26 26 26 25 24 23 20 17 17 19 20 20 18 16 16 16 16 14 11 10 13 13 11 10 10 9 8 7 8 8 10 11 11 12 13 13 13 15 17 19 21 22 23 23 24 26 27 28 27 27 28 28 28 27 27 27 27 27 27 27 26 26 25 25 24 24 24 24 24 24 24 24 24 23 23 23 23 23 22 22 22 22 22 21
27 28 28 27 26 24 22 20 18 16 17 19 20 19 17 16 17 17 16 12 10 12 11 10 11 12 12 10 9 8 9 11 12 11 11 13 14 13 15 17 18 20 21 22 22 22 24 26 28 28 28 28 28 29 29 29 29 28 28 28 28 28 27 27 26 26 26 25 25 25 25 25 24 24 24 24 24 24 23 23 23 23 23 22 22
27 27 27 27 25 23 22 20 18 17 16 17 17 19 19 17 18 18 17 14 12 12 13 12 12 12 13 13 11 10 11 12 13 13 11 12 15 14 15 16 18 19 20 21 22 22 23 25 26 28 29 29 28 28 30 31 31 30 30 29 29 29 28 28 27 27 27 26 26 27 26 26 25 24 24 24 24 25 24 24 24 24 24 23 23
22 23 23 23 22 22 21 20 19 19 18 16 15 15 17 17 18 19 19 17 15 14 13 13 13 11 12 14 14 12 12 13 14 14 12 12 15 16 15 16 18 19 19 21 22 22 23 23 25 26 28 28 28 28 28 30 31 32 32 31 31 30 30 28 28 28 28 27 27 27 27 27 26 26 25 25 25 25 25 25 25 25 25 25 25
19 19 19 19 19 19 19 19 19 19 19 18 16 15 15 17 18 20 20 19 17 15 13 13 12 11 11 13 15 14 14 14 14 14 13 13 15 17 17 17 18 18 18 20 21 22 23 23 23 25 26 27 27 27 28 29 30 31 32 32 32 32 31 30 29 28 28 28 28 27 27 27 26 26 26 26 26 26 25 25 25 25 25 26 25
17 17 16 16 17 17 17 17 17 18 18 19 19 17 15 17 19 20 20 20 19 17 14 13 12 12 13 14 13 12 13 13 14 13 14 15 16 17 18 18 18 17 18 19 20 21 22 23 23 24 25 26 26 26 26 28 29 30 31 32 32 32 32 31 30 29 29 29 28 28 28 27 26 26 25 25 25 25 25 25 25 25 25 26 25
15 15 15 15 15 15 15 16 16 16 17 18 19 18 17 17 18 20 21 21 20 18 16 13 12 12 13 14 11 10 11 11 12 12 14 16 17 18 19 19 19 19 19 20 20 20 21 22 23 23 24 25 25 25 25 25 26 28 29 30 31 31 32 32 31 30 30 30 29 29 29 29 28 27 27 26 25 25 25 25 25 24 25 25 25
12 13 13 13 13 14 14 14 15 15 16 17 17 18 18 18 18 19 21 22 20 19 16 14 13 12 13 13 10 9 12 12 13 12 13 17 18 18 18 19 19 20 21 20 19 20 21 22 22 23 24 24 24 25 24 24 24 25 26 27 27 29 30 31 31 32 32 31 31 31 30 29 29 29 28 28 27 27 26 26 26 25 25 25 25
10 11 11 11 11 12 13 14 14 15 15 16 16 16 17 18 18 19 20 21 20 19 18 17 16 14 15 14 12 12 14 12 11 10 10 13 16 17 18 18 18 20 20 20 19 20 21 21 22 22 23 24 24 24 24 23 23 23 24 24 24 25 27 28 30 31 32 32 32 32 32 31 31 30 30 30 29 29 28 28 27 26 26 25 25
8 9 9 10 11 11 12 12 13 14 14 14 15 15 16 16 17 19 20 21 21 21 21 20 18 16 16 15 14 18 20 17 15 14 11 11 13 15 17 17 18 19 20 20 19 20 20 21 21 22 23 24 24 24 23 23 22 22 22 22 22 23 24 25 27 28 30 30 32 32 32 32 32 31 31 31 31 30 29 29 28 26 26 26 27
8 8 8 9 11 11 11 11 12 12 13 13 14 14 15 15 16 18 19 21 21 22 21 20 19 17 17 16 14 17 21 23 24 23 19 16 14 14 14 15 18 19 20 20 20 20 20 20 20 22 23 23 23 23 23 23 23 22 22 21 21 21 22 23 24 25 26 27 29 30 32 32 32 32 31 31 31 31 30 29 28 27 26 26 26
8 8 8 8 9 10 10 11 11 12 12 13 13 13 14 14 14 16 17 19 20 21 20 20 20 19 18 17 16 17 19 21 25 26 25 22 20 17 15 14 16 18 18 20 20 20 20 20 20 21 22 22 22 22 23 23 23 23 22 20 19 20 21 22 22 22 23 24 25 26 28 29 30 31 31 31 31 31 30 30 29 28 28 27 26
6 6 7 7 8 8 9 10 11 12 13 13 13 14 14 15 14 14 16 18 19 21 20 20 20 20 19 19 19 20 20 20 21 23 24 23 22 21 19 17 17 15 14 16 17 18 19 20 21 21 22 22 22 22 23 23 22 22 21 20 18 18 19 21 22 22 22 23 23 24 24 25 26 27 28 29 30 30 30 29 29 29 29 28 27
4 4 5 5 6 7 8 9 10 11 12 13 13 14 14 14 14 15 16 17 19 20 20 21 21 20 20 20 20 21 22 20 19 19 22 23 23 23 21 20 19 17 14 14 14 15 16 18 20 21 21 22 22 22 22 22 21 21 19 18 17 17 17 18 19 20 21 22 23 23 24 24 24 24 25 26 27 27 28 28 28 28 28 27 27
5 5 5 6 7 7 7 8 8 9 10 11 12 13 13 13 13 15 16 17 18 18 19 20 21 21 21 21 21 22 22 21 20 20 21 22 24 25 23 20 20 19 16 14 14 14 15 17 19 19 20 21 22 23 23 22 21 20 19 18 17 16 16 17 17 18 19 20 20 20 21 22 23 24 24 25 25 25 25 26 26 26 26 26 26
6 5 4 6 7 8 8 9 9 9 9 9 10 11 12 13 13 14 15 16 16 17 19 19 20 21 22 23 23 23 22 21 20 20 21 22 24 26 25 23 23 21 18 16 16 15 15 17 18 18 19 20 21 22 22 23 22 20 19 19 18 17 17 17 17 16 16 17 18 18 19 20 21 22 23 23 23 24 24 24 25 25 25 25 25
7 7 5 7 8 8 9 10 11 11 9 9 9 9 10 10 11 12 13 14 14 16 18 19 20 20 21 23 24 24 23 22 20 20 21 22 22 24 25 25 25 23 21 19 18 17 16 16 15 16 18 19 20 20 21 21 22 21 20 20 19 19 18 17 17 16 15 16 17 17 18 20 21 21 21 21 21 21 22 22 22 22 22 23 22
7 7 6 8 10 9 9 9 10 11 11 10 10 10 10 9 9 10 11 12 13 16 17 18 19 20 21 22 23 24 24 24 22 21 22 22 21 20 22 26 27 26 24 22 21 19 17 15 14 14 16 17 17 18 19 20 21 20 20 20 20 19 18 18 17 16 15 15 16 17 19 20 21 20 20 20 20 19 19 19 19 20 20 20 21
8 7 6 10 12 11 11 10 9 10 11 11 10 10 11 11 10 10 10 10 12 14 16 18 19 19 20 22 24 25 25 25 25 24 24 24 23 20 19 23 27 28 26 24 22 20 17 16 16 15 15 16 16 16 17 18 19 19 19 20 20 19 19 18 18 17 16 16 16 18 19 20 20 19 19 19 19 19 19 19 19 19 19 19 19
9 9 8 11 13 13 12 12 11 11 12 12 12 12 12 12 12 12 12 11 11 12 14 16 18 19 20 21 23 26 26 27 26 26 26 27 26 23 20 20 23 26 28 26 23 21 18 17 16 14 14 14 14 15 16 17 17 16 17 19 19 19 18 18 18 17 17 17 17 17 18 18 18 18 18 18 18 18 18 18 18 18 18 18 18
8 9 11 12 14 15 14 14 14 15 16 16 16 15 14 14 13 13 13 12 12 12 13 15 16 18 20 21 22 25 26 27 28 28 27 28 28 27 25 21 20 23 27 28 27 23 19 18 16 14 13 12 12 12 14 16 15 15 16 17 18 18 17 17 17 17 17 18 18 18 18 18 18 18 18 18 18 18 18 17 17 17 17 17 18
11 12 14 15 16 17 17 17 16 16 17 17 17 16 16 15 14 14 14 13 13 13 14 15 16 16 19 21 23 24 25 27 29 29 29 29 29 29 28 24 21 21 23 26 28 25 21 19 18 15 14 13 12 12 12 13 14 15 16 17 17 17 17 17 17 18 18 18 19 19 20 19 19 19 18 18 18 18 17 17 16 16 17 17 17
15 16 17 18 18 18 17 15 14 14 14 14 15 15 16 17 17 16 15 15 15 14 14 16 16 17 19 21 23 24 25 27 28 28 29 29 29 30 29 27 23 21 22 23 26 26 23 21 20 17 15 15 14 14 13 12 13 15 17 17 18 17 17 17 17 18 18 18 19 19 20 20 19 19 19 19 19 19 18 17 17 17 17 18 18
17 19 20 20 19 18 15 13 13 13 13 13 14 15 17 19 18 17 16 16 16 16 16 17 17 17 19 20 21 22 24 26 26 27 27 27 27 29 31 29 25 21 22 24 27 27 25 23 22 19 17 17 17 17 15 14 14 16 17 17 18 18 18 18 18 18 17 17 17 17 18 19 19 20 21 21 20 20 19 18 18 18 19 19 19
19 20 21 21 20 19 18 17 17 16 17 17 18 19 20 19 18 16 16 16 16 16 17 18 18 17 19 21 21 21 21 24 25 27 28 27 27 29 31 30 27 23 22 24 27 28 26 24 23 22 21 20 20 19 18 17 16 16 16 16 17 17 18 18 18 18 17 17 16 16 16 16 18 20 21 21 20 20 19 19 20 20 20 20 20
20 20 20 20 20 20 20 20 19 19 19 19 19 20 20 18 17 16 16 15 15 15 16 18 18 18 19 21 22 22 22 24 25 26 29 30 30 30 31 31 30 26 23 22 23 27 28 25 24 24 24 24 23 22 21 20 19 17 17 16 16 17 17 17 18 18 18 18 17 16 15 15 17 18 19 20 19 19 19 19 19 20 20 20 21
19 18 18 18 19 19 20 20 19 19 18 18 17 17 17 17 17 17 17 16 17 17 17 17 17 19 20 21 21 21 22 24 25 26 27 30 32 32 32 32 32 29 27 23 22 24 27 27 27 27 27 28 26 24 22 22 21 20 18 17 16 17 17 17 18 19 19 19 18 17 17 16 17 18 19 19 19 19 19 19 19 19 20 20 21
19 18 17 16 17 18 19 19 18 18 18 17 17 17 16 16 17 17 17 18 18 18 18 17 18 18 20 21 21 21 22 23 25 26 26 28 30 32 33 34 33 32 30 28 25 24 25 27 28 28 30 31 29 25 23 24 23 22 21 19 18 18 17 17 19 20 20 20 19 19 19 18 18 18 18 19 20 20 20 20 20 20 21 21 21
20 19 18 17 17 17 18 17 17 18 18 17 18 18 18 17 17 18 18 18 18 18 18 18 19 19 20 20 20 21 22 24 25 26 26 27 28 30 33 34 34 33 32 31 30 28 27 28 28 28 30 34 32 27 25 24 24 24 23 22 21 20 19 19 19 20 20 21 21 20 20 19 18 18 19 19 20 20 21 20 21 21 22 22 23
20 20 20 19 18 17 17 17 17 17 18 18 18 18 18 18 18 18 18 18 19 18 17 17 19 20 21 20 20 20 22 24 25 25 25 26 27 28 31 33 34 35 34 33 32 30 29 28 29 29 31 35 34 29 26 25 24 24 24 23 23 21 21 21 20 20 20 21 21 21 21 20 19 19 19 18 18 19 20 20 21 21 22 23 24
20 20 19 19 18 18 17 17 17 17 17 17 17 18 18 18 17 17 17 18 18 18 17 17 18 20 21 22 21 21 21 23 24 24 25 26 27 28 29 30 33 35 35 34 33 32 30 28 29 31 31 33 35 31 27 26 26 26 25 24 23 22 21 21 21 21 20 21 21 21 21 21 20 20 19 19 19 19 19 19 20 21 22 22 22
19 18 17 17 18 18 17 17 17 17 17 17 17 17 18 18 17 17 17 17 18 19 19 18 18 19 21 22 22 21 21 21 22 23 24 26 26 27 27 27 29 32 35 36 34 33 32 28 28 30 31 33 35 34 31 30 28 26 24 24 24 22 21 21 22 21 21 21 22 22 22 21 21 21 20 20 19 18 18 18 19 19 19 20 20
17 17 16 16 17 17 17 17 17 17 17 17 17 17 17 17 17 18 18 18 19 19 19 19 19 19 19 21 21 21 21 21 21 22 23 24 25 26 27 27 28 31 34 37 36 35 35 31 26 27 31 34 35 35 34 31 28 25 23 23 24 23 22 22 23 22 21 21 22 23 22 21 21 21 20 19 18 17 17 18 17 17 18 19 20
17 16 16 17 17 17 17 17 17 17 17 17 17 17 17 17 17 18 19 19 19 20 20 20 20 20 19 20 20 21 21 21 22 22 22 23 24 25 27 27 28 30 33 36 38 38 38 36 30 27 31 34 35 35 35 32 28 26 24 23 23 23 23 23 23 22 21 20 21 23 23 21 21 21 19 17 16 16 17 17 17 18 18 19 19
17 16 16 17 17 17 17 17 16 17 17 17 17 17 17 17 17 18 19 20 20 20 21 21 21 20 20 21 21 21 21 20 21 21 21 21 22 24 26 26 27 29 32 35 39 39 40 41 38 32 30 33 36 36 35 32 29 27 25 24 23 23 24 24 23 22 20 18 20 22 23 21 20 20 18 16 15 16 16 17 17 18 18 18 17
18 17 17 17 17 17 16 16 17 17 17 17 16 17 18 18 18 19 19 20 21 21 22 22 22 22 22 22 22 22 22 21 21 21 21 21 22 23 25 26 28 29 31 34 38 40 41 43 43 40 34 32 34 36 34 31 29 29 28 27 26 25 25 25 24 22 20 19 20 21 21 19 18 19 18 15 15 15 15 16 17 17 18 18 17
19 18 18 18 17 17 17 17 18 18 17 17 17 17 18 18 18 19 20 21 22 22 23 23 23 23 23 23 23 23 23 22 21 21 22 22 23 23 24 26 28 30 31 33 36 40 42 42 44 44 40 34 32 33 33 30 30 31 31 30 28 27 25 24 24 22 21 20 20 21 22 20 18 19 18 16 15 15 15 16 17 17 17 16 16
18 18 18 19 19 19 18 18 19 19 18 18 18 18 18 18 18 18 19 21 22 23 24 24 24 24 24 24 24 24 24 23 22 22 22 22 23 23 24 25 27 29 30 31 34 38 42 43 44 45 44 39 34 32 32 31 31 31 31 30 29 26 25 25 24 23 21 20 20 22 23 22 20 20 19 16 15 16 15 16 16 16 16 16 15
16 17 17 17 18 18 18 18 19 20 19 18 18 17 17 18 19 20 20 21 23 24 24 25 25 25 24 24 24 24 24 23 22 22 22 22 23 24 24 25 26 27 29 30 31 35 39 42 43 44 44 43 39 34 31 32 34 34 32 30 29 28 28 28 27 25 23 22 21 22 24 23 21 21 20 18 17 17 16 16 16 16 16 16 15
16 16 16 16 16 17 18 19 19 20 20 19 17 17 17 18 19 20 21 22 23 23 24 24 25 25 24 24 24 24 24 23 23 22 22 22 23 24 24 25 26 28 29 29 30 33 35 37 40 41 41 42 42 38 34 33 35 34 32 31 30 30 31 30 29 28 27 25 23 23 23 23 23 23 23 21 19 18 16 16 16 15 15 15 15
18 17 17 17 17 17 19 20 19 20 21 20 18 17 17 17 18 20 21 23 23 23 23 24 24 24 24 23 22 23 24 24 23 23 22 21 23 24 25 26 28 29 30 29 29 31 32 33 35 36 37 40 43 42 38 36 36 35 32 30 30 30 32 33 31 30 29 28 26 24 24 24 24 24 24 22 21 20 18 16 15 15 15 15 14
18 17 17 17 18 19 20 21 19 18 19 19 18 17 16 16 17 18 20 22 23 24 23 23 24 24 24 23 22 22 24 24 24 25 23 21 22 25 25 26 28 30 30 28 28 31 32 32 32 33 35 37 41 42 40 39 39 37 34 32 32 33 35 34 32 30 31 31 28 26 26 26 26 25 25 23 22 21 19 17 16 15 15 15 15
Wind_Direction
262 266 297 307 290 267 266 262 269 313 328 314 305 314 342 360 345 326 319 309 302 307 310 298 274 254 241 233 229 230 229 224 222 224 225 222 220 220 223 221 219 221 220 222 227 225 223 225 224 220 218 217 216 217 215 214 216 219 221 226 230 230 227 227 227 227 230 233 234 234 236 238 240 241 244 247 248 249 249 251 254 256 258 260 262
271 256 262 280 288 270 260 245 247 280 307 304 301 303 322 346 350 345 336 318 305 304 309 304 293 284 247 233 232 231 227 221 220 224 226 224 221 220 222 223 222 223 223 223 228 228 225 224 224 221 220 220 218 221 221 218 219 223 229 233 234 234 232 231 231 231 232 234 238 240 239 240 242 243 246 249 251 253 253 254 258 260 262 263 265
261 251 251 263 269 269 256 232 233 261 284 286 290 297 305 326 341 342 336 323 312 306 305 299 290 294 258 232 232 232 231 225 220 222 225 225 221 220 223 225 224 226 226 226 229 230 228 226 226 225 224 224 223 223 225 225 225 227 231 234 236 238 238 238 236 233 234 236 239 243 244 244 245 247 249 251 252 255 255 256 259 261 263 264 266
249 249 249 257 261 262 262 248 236 233 244 252 263 283 289 302 322 331 331 327 319 306 298 296 289 289 267 234 231 232 236 232 222 219 223 224 221 221 225 227 226 227 229 229 229 229 230 231 229 228 228 229 229 228 230 231 231 232 234 235 237 241 243 243 241 238 236 237 240 243 246 247 249 250 251 253 254 255 257 258 260 262 262 263 265
246 246 243 248 255 258 264 267 261 253 248 241 247 264 273 284 305 321 327 328 327 312 294 296 294 288 274 247 238 233 235 233 225 221 222 225 226 224 224 226 227 228 229 230 230 230 231 233 233 232 232 233 234 234 235 235 237 238 239 241 242 244 245 246 246 243 240 240 241 243 246 247 250 252 253 255 256 256 258 259 260 261 262 262 264
249 249 246 246 252 262 270 272 270 266 262 257 257 262 264 268 280 300 310 313 320 314 294 288 293 290 278 259 248 239 238 236 230 226 225 225 228 227 225 227 229 229 231 231 232 233 234 235 235 234 232 234 236 237 238 238 239 240 242 244 244 245 246 248 248 248 246 245 246 246 247 248 250 252 253 254 256 257 258 258 259 260 262 264 265
255 254 253 254 257 264 270 271 270 266 262 261 261 263 265 265 267 278 290 295 303 309 298 283 281 281 269 260 250 243 244 241 234 230 228 227 228 228 226 229 232 233 234 234 234 235 237 238 238 236 234 234 236 239 240 240 240 240 241 243 245 246 246 248 250 250 250 250 251 251 251 251 251 252 253 254 254 256 258 259 259 260 262 264 266
256 257 257 259 261 264 267 269 268 264 260 260 261 264 266 263 262 269 278 286 291 299 300 286 273 265 256 251 242 239 243 242 237 232 231 231 229 226 226 229 232 234 235 237 238 238 239 240 239 239 237 236 236 238 240 241 241 242 242 244 246 248 249 250 251 252 251 251 253 254 255 254 254 254 255 255 255 256 258 260 261 261 262 264 265
253 256 259 261 264 267 268 267 265 261 257 256 259 263 264 260 259 264 270 278 282 291 299 285 261 247 244 244 242 242 245 244 240 236 236 236 233 228 227 229 232 233 235 237 240 241 241 242 242 241 240 240 238 238 240 242 244 244 245 245 247 249 251 251 252 253 252 252 252 253 254 254 254 255 255 256 257 258 260 261 262 262 263 264 265
256 258 260 263 266 268 267 264 261 259 254 251 254 257 260 259 258 260 266 272 274 284 293 279 256 243 236 235 237 240 244 244 240 234 238 243 242 236 232 230 231 233 235 237 240 241 242 242 243 243 243 243 242 241 241 242 244 246 246 246 247 249 250 251 252 253 253 253 253 253 254 255 255 255 255 256 257 258 260 261 262 262 264 265 267
261 262 263 264 266 267 265 261 256 252 247 246 249 251 254 256 255 255 260 264 264 274 281 271 260 247 234 230 233 237 241 242 239 232 235 246 250 244 238 234 232 232 235 239 241 242 243 242 243 244 244 244 244 245 245 244 244 245 246 246 246 247 248 250 251 252 253 254 254 254 255 256 257 257 257 257 258 258 259 260 261 261 263 265 267
262 262 263 264 265 265 264 261 255 249 245 243 245 248 249 250 250 250 254 258 259 267 273 268 262 249 235 231 230 232 234 237 241 237 234 242 247 246 243 240 236 234 235 238 240 241 242 242 242 244 245 245 246 247 248 248 246 245 244 245 245 245 246 247 249 251 253 254 255 255 255 256 257 259 259 260 260 260 260 260 260 261 262 263 265
261 261 261 262 263 263 262 260 256 253 250 246 243 244 244 243 243 244 250 255 259 266 269 267 260 248 238 233 230 233 236 239 242 243 242 241 243 245 245 244 241 239 238 239 239 239 239 241 243 244 246 246 246 246 247 248 248 246 245 245 245 245 245 245 247 249 251 252 253 254 255 256 256 258 259 260 261 262 263 263 264 264 264 264 264
261 261 260 259 259 260 261 260 258 256 254 251 248 245 241 241 239 239 246 252 259 262 261 264 257 243 240 237 232 234 242 246 245 244 244 243 241 242 242 242 240 239 241 242 242 239 238 239 242 244 245 247 247 245 245 246 246 245 245 245 246 246 246 245 246 248 250 251 252 253 255 256 256 257 258 258 259 261 262 264 265 266 266 266 266
261 261 260 258 257 258 259 258 258 256 256 255 253 249 243 241 239 239 245 252 259 260 257 263 254 234 238 240 237 245 252 253 252 247 243 242 242 242 241 241 239 238 241 242 243 242 240 240 241 242 243 245 247 247 247 246 246 245 246 247 247 248 248 247 246 247 250 251 252 254 255 255 255 256 257 257 258 259 260 263 264 265 265 267 268
263 263 261 261 259 257 255 254 255 257 258 257 254 250 244 240 238 240 245 249 254 257 255 257 247 233 236 234 236 258 264 265 271 263 247 241 242 243 244 245 244 244 244 243 244 245 244 244 244 243 242 242 244 247 248 248 247 247 247 248 249 250 250 250 249 248 249 251 253 254 255 255 255 256 257 258 260 261 262 265 267 267 267 268 270
265 265 265 266 265 264 261 258 258 258 259 257 254 252 246 240 237 240 245 249 251 254 254 253 247 244 243 233 224 242 257 267 275 268 249 242 243 243 245 247 247 247 247 246 246 247 247 246 246 245 244 243 242 243 246 247 248 248 248 249 249 251 251 251 251 251 251 251 252 254 255 255 256 256 257 259 261 262 264 266 268 269 269 270 270
266 268 270 270 269 270 269 266 264 262 259 257 256 254 249 242 237 239 245 250 253 255 258 259 255 249 245 240 231 238 254 264 261 260 255 247 243 243 245 248 247 247 246 246 246 246 247 247 247 246 245 245 243 242 242 245 247 248 249 250 251 252 253 253 253 252 252 252 252 254 256 256 257 257 258 260 261 262 264 266 268 269 269 270 270
267 270 274 276 275 270 268 267 266 264 261 259 261 260 253 246 242 242 244 247 249 251 255 261 261 254 247 245 243 245 251 255 257 263 264 257 252 248 247 249 248 247 246 246 247 246 247 247 247 246 244 244 243 242 241 243 246 247 249 250 252 253 254 254 254 253 253 253 254 255 256 258 259 258 258 259 260 261 263 266 268 269 268 268 269
277 277 278 280 280 274 269 267 267 267 266 264 265 264 259 254 250 248 246 245 246 247 248 252 256 256 250 248 252 253 253 256 260 262 263 266 267 259 254 252 249 249 249 249 250 250 250 250 249 247 244 244 243 242 243 244 246 247 247 248 250 252 253 253 253 253 253 253 254 255 256 257 258 258 258 258 259 260 262 265 266 267 267 267 267
284 282 282 284 286 284 277 272 270 270 270 269 266 262 260 260 258 255 249 245 244 245 245 243 244 247 245 242 246 252 256 260 261 260 260 263 264 263 263 258 251 253 253 252 253 253 253 253 253 251 248 246 244 244 244 245 247 247 247 247 247 249 250 252 253 253 253 254 254 254 255 256 257 257 258 258 259 260 261 263 264 265 267 267 268
288 285 287 290 288 285 279 274 271 270 270 271 268 263 259 259 260 259 254 248 245 244 244 243 241 241 242 242 243 246 253 260 260 258 257 256 258 262 265 263 261 264 263 259 259 258 256 255 254 254 253 251 248 246 245 245 246 249 249 247 246 248 248 249 250 251 252 253 254 254 255 256 256 257 257 257 258 259 261 261 261 263 265 266 267
299 307 317 318 307 294 285 279 275 272 271 271 271 268 263 260 258 256 254 250 246 245 245 246 247 245 243 244 244 244 247 253 257 258 256 255 256 259 263 265 266 270 273 271 269 264 259 255 253 253 255 256 253 249 248 248 247 248 250 249 248 248 249 248 248 249 250 251 251 253 254 255 255 256 256 256 256 257 259 260 259 260 262 263 264
304 317 334 340 334 324 310 300 293 286 279 275 272 269 265 261 258 256 254 250 249 251 249 249 252 253 249 246 245 245 245 249 255 260 262 264 263 262 266 267 266 271 277 275 272 266 260 255 253 253 255 256 255 252 251 252 251 250 251 252 250 249 250 251 249 248 249 247 246 248 250 253 255 255 255 255 255 256 257 258 257 257 259 260 262
299 302 320 337 339 338 331 327 322 310 293 280 274 270 266 263 260 259 258 255 254 256 255 253 254 254 251 248 246 245 244 246 253 259 264 269 268 266 268 268 267 272 276 274 272 268 261 258 257 256 255 256 254 251 250 252 253 252 251 252 252 252 253 253 253 252 248 243 241 244 248 251 253 255 256 256 256 256 257 258 258 257 257 257 258
303 297 310 327 325 323 326 332 332 326 315 299 285 277 272 267 266 265 265 265 261 258 258 257 255 253 252 250 247 246 244 243 249 257 263 268 267 265 269 269 265 267 270 270 270 266 260 260 260 258 257 257 254 250 249 250 252 252 251 251 251 251 252 252 253 254 250 243 240 244 248 251 253 255 257 259 259 259 259 259 259 258 258 257 258
299 295 307 317 312 306 307 317 324 323 320 312 299 288 282 278 276 273 271 271 267 263 261 260 257 254 252 251 249 247 244 241 245 251 259 265 266 267 273 271 262 260 264 266 266 266 265 264 261 258 258 258 254 251 251 252 252 252 251 251 250 247 246 247 249 252 252 246 244 245 248 251 254 255 257 258 258 259 259 258 258 258 257 257 257
279 287 298 307 306 302 298 299 302 305 307 308 303 295 289 286 285 283 278 273 270 268 267 264 260 256 252 250 249 249 245 241 241 245 251 257 259 262 272 273 264 260 262 264 264 266 269 267 262 258 257 258 255 252 252 251 250 250 249 249 249 246 243 243 245 248 250 249 247 247 248 251 253 254 253 253 254 255 255 255 255 254 254 254 254
279 284 287 293 298 298 295 293 290 292 297 302 303 297 292 289 289 289 286 278 273 270 269 266 262 258 255 251 248 249 249 244 241 242 248 253 255 255 261 269 268 264 261 261 263 268 271 268 265 264 262 259 257 252 247 246 245 244 244 245 247 245 242 241 242 244 246 248 249 249 250 252 253 254 253 252 252 252 253 253 253 253 254 254 255
287 281 277 281 286 286 286 288 290 291 293 296 298 296 294 294 294 293 289 284 280 275 271 266 262 260 259 255 251 250 249 247 244 243 247 253 256 256 256 260 267 268 264 261 263 269 270 264 262 266 266 260 258 254 248 245 242 240 240 242 244 244 241 240 242 244 245 246 248 251 253 255 256 257 257 255 254 254 255 256 256 256 258 257 257
287 282 279 279 279 278 279 282 285 286 285 286 287 288 291 294 295 292 288 285 285 281 274 268 265 264 262 259 256 253 249 247 246 245 246 248 253 257 258 257 260 267 267 262 261 265 267 266 265 265 266 264 258 254 250 245 240 239 241 244 245 245 243 243 245 247 248 249 250 251 252 255 257 258 258 257 256 256 257 258 259 258 258 258 257
287 285 283 283 284 284 282 279 276 275 275 275 276 279 285 291 293 290 287 285 284 280 276 272 269 266 265 262 258 255 252 249 247 246 246 245 248 254 257 255 256 262 263 257 258 264 266 267 268 266 266 266 257 249 249 245 238 236 239 243 246 247 246 246 247 247 247 248 249 249 249 251 254 256 256 256 256 258 259 259 259 258 256 255 254
289 288 288 289 290 289 282 273 270 273 274 275 277 281 285 288 289 287 286 286 284 279 275 273 271 268 267 265 262 258 256 255 252 250 250 247 246 251 254 251 250 257 260 258 259 264 265 263 263 262 263 264 257 250 249 245 237 233 235 240 244 247 247 247 246 243 241 243 246 248 250 251 253 254 254 255 256 258 259 258 257 255 254 253 253
291 291 292 292 292 288 280 273 272 273 275 277 280 282 284 283 282 281 283 286 285 282 276 273 273 271 268 266 263 261 261 261 258 255 254 251 248 250 250 248 247 251 258 262 263 265 264 262 260 258 258 260 258 253 251 248 241 237 237 240 242 244 245 246 245 240 237 240 245 249 252 255 255 255 255 255 256 256 256 255 255 254 254 253 253
296 296 295 293 291 288 284 282 280 278 277 277 278 279 279 278 277 277 280 282 284 286 283 278 275 273 271 268 265 262 261 261 260 257 254 251 249 249 248 246 245 247 250 258 266 267 264 262 260 257 257 259 260 256 253 252 249 244 242 241 240 241 243 244 244 240 239 242 247 252 255 257 259 258 258 256 254 254 253 253 254 254 255 255 254
299 300 298 294 291 288 287 287 286 284 281 279 278 278 277 278 279 279 279 279 280 283 284 283 279 276 275 273 269 266 263 261 260 258 255 251 248 247 246 244 244 246 247 251 260 267 266 264 262 259 258 260 261 259 254 253 252 249 247 243 240 242 245 248 249 247 245 247 250 254 256 257 259 259 258 256 254 254 254 254 256 256 256 256 255
300 299 297 295 292 289 288 287 286 285 283 282 281 281 281 280 280 279 278 276 276 277 280 281 280 279 277 275 273 271 268 264 261 259 257 254 249 246 245 244 243 245 246 247 251 259 264 265 263 261 261 260 258 257 254 252 251 250 248 244 241 244 248 252 255 255 253 252 252 254 256 257 258 257 255 254 254 256 258 259 260 260 258 256 255
301 299 296 293 292 291 288 285 284 283 282 283 283 283 283 282 280 279 278 276 275 275 278 278 278 278 277 276 274 272 271 269 266 264 261 258 255 250 246 245 244 245 247 247 249 253 259 263 263 263 263 259 254 253 252 249 248 250 250 248 245 245 248 252 256 258 258 257 256 257 257 255 255 255 254 253 255 257 259 260 261 261 261 259 259
302 300 296 292 291 291 289 286 285 284 283 283 283 284 284 283 282 281 279 277 276 276 276 275 275 276 276 276 275 272 271 271 271 269 265 261 259 255 250 246 244 245 248 248 248 251 257 262 261 261 264 260 252 249 250 247 245 246 247 247 247 248 251 254 257 259 259 259 260 259 256 253 252 251 253 255 257 258 258 258 259 260 262 264 264
304 301 298 294 291 290 289 288 286 285 284 283 283 285 285 283 282 281 279 278 277 275 275 274 273 273 274 276 277 276 274 273 272 271 267 262 261 260 257 252 247 245 247 249 248 249 255 261 260 259 262 258 248 245 246 242 239 242 243 242 246 251 255 259 262 262 260 259 260 259 255 253 250 249 252 254 256 258 260 260 261 262 263 264 265
302 301 299 296 294 291 288 287 286 285 284 283 283 284 284 284 283 281 279 278 277 277 276 275 273 272 273 275 277 279 278 275 274 273 269 264 262 262 261 258 254 249 247 249 250 250 253 259 260 258 258 254 246 242 241 239 239 243 244 243 247 253 257 260 262 262 262 260 260 259 258 257 255 253 253 254 256 259 260 262 263 265 264 263 263
299 298 296 295 294 292 290 289 288 286 285 284 284 283 283 285 284 282 280 278 276 276 276 276 275 273 274 275 277 279 280 278 276 274 272 268 264 262 261 260 258 253 248 247 248 248 250 255 258 256 253 249 245 242 240 240 242 244 244 245 250 254 256 258 260 261 261 261 259 259 260 260 258 255 254 256 258 259 259 260 262 264 265 263 262
295 294 294 294 294 293 293 292 290 288 286 285 286 284 282 281 281 281 281 279 276 275 274 275 275 274 275 276 277 279 279 279 278 276 274 271 266 264 262 259 257 254 250 247 245 243 244 248 252 256 252 247 244 242 238 238 241 243 245 248 251 254 255 255 258 260 260 259 258 259 261 260 257 256 255 256 257 257 257 258 261 266 266 264 262
294 293 295 296 296 295 294 293 291 290 288 286 286 285 282 279 278 279 279 278 276 275 274 274 274 274 275 276 277 279 279 279 280 278 276 272 267 265 262 259 256 254 250 248 245 242 240 240 244 250 252 246 241 239 236 236 238 240 244 247 249 252 253 253 256 261 263 261 259 261 263 260 256 254 255 257 259 259 259 261 265 268 266 264 263
294 295 299 299 298 297 296 295 294 292 290 288 287 286 283 280 278 277 276 275 274 274 273 273 273 273 274 276 278 279 280 280 279 277 276 273 270 267 263 258 255 253 251 248 245 243 240 238 239 241 244 246 243 237 233 236 241 241 241 243 245 248 250 252 258 266 269 264 261 264 265 260 255 254 256 261 264 263 263 265 268 269 266 265 262
295 295 298 300 301 299 298 298 296 293 292 291 290 288 285 282 279 277 276 275 274 275 275 275 274 273 274 277 278 279 280 280 277 276 277 276 273 270 265 259 255 254 254 249 245 242 240 240 240 238 239 244 248 243 237 239 243 244 244 245 245 246 250 257 265 270 269 263 260 263 263 258 254 255 258 263 266 267 269 268 267 267 267 264 261
299 297 298 301 303 302 301 301 298 295 294 295 293 289 284 280 277 276 275 275 275 276 276 276 275 275 276 277 278 278 279 278 277 277 279 278 273 269 264 260 256 255 254 251 245 241 240 240 241 239 238 240 245 248 248 248 247 247 248 249 249 248 250 255 261 263 261 257 254 255 257 255 253 256 259 263 267 271 273 270 266 265 264 262 262
308 306 305 304 305 305 305 304 301 297 296 298 298 293 286 281 277 274 274 275 275 274 275 276 276 277 278 278 277 277 277 276 275 275 277 277 274 269 265 264 262 259 255 251 245 242 240 240 241 241 241 239 240 244 250 252 251 250 250 249 248 248 248 249 254 255 252 248 246 248 252 254 255 257 261 265 270 275 276 271 267 263 262 263 262
317 316 314 311 310 310 310 309 307 300 295 298 301 298 292 288 283 279 277 277 276 275 275 276 278 278 278 276 275 276 275 274 274 274 275 275 272 268 266 265 265 264 259 252 247 243 242 242 241 242 242 240 239 241 246 248 247 247 248 247 246 246 247 249 251 252 250 248 246 246 249 253 256 258 261 265 270 275 274 270 266 262 261 262 259
316 316 316 313 312 314 315 314 311 303 297 296 299 298 295 292 288 284 282 281 279 278 278 278 278 278 277 275 273 273 274 274 275 275 274 273 269 266 264 261 259 260 258 255 251 246 242 241 240 239 239 237 237 240 244 244 242 241 242 246 247 247 248 249 250 251 253 252 250 248 248 251 253 254 257 262 267 271 271 268 263 260 259 258 254
312 310 310 309 309 313 316 315 311 306 300 297 296 295 294 294 291 286 284 283 281 281 281 281 280 278 277 274 271 271 272 273 273 273 272 270 268 267 266 262 258 256 255 256 255 249 243 241 238 236 235 234 235 239 242 243 241 238 240 246 250 249 248 250 250 251 253 253 250 247 247 249 251 250 251 255 260 266 269 267 261 258 256 254 249